Dewpoint
63 63 62 60 60 61 61 61 60 60 61 61 61 61 61 61 61 61 61 61 61 61 62 62 62 63 63 63 64 64 64 64 65 64 63 64 64 64 64 63 63 63 62 62 62 62 61 61 61 61 61 61 61 61 61 61 61 61 61 60 59 59 59 59 59 59 59 59 58
63 61 59 58 58 61 63 61 61 61 61 61 62 62 62 62 62 61 61 61 61 61 62 62 63 63 63 63 63 64 64 64 64 64 64 64 64 64 64 63 63 62 62 62 62 62 62 62 61 61 61 61 61 61 61 61 61 61 60 60 60 59 59 59 59 59 59 59 58
63 61 59 60 60 62 64 61 61 61 61 62 62 62 62 62 62 62 62 62 62 62 62 62 63 63 63 64 64 64 64 64 65 65 65 64 64 64 64 63 63 62 62 62 62 62 62 62 61 61 61 61 61 61 61 61 61 61 60 60 60 60 59 59 59 59 59 59 58
62 61 60 61 61 61 61 61 61 61 61 62 62 63 63 62 62 62 62 62 62 62 62 62 62 62 62 63 64 64 64 63 64 65 65 64 64 64 64 63 63 63 62 62 62 62 62 62 62 61 61 61 61 61 61 61 60 60 60 60 60 60 59 59 59 59 59 59 58
60 60 60 61 61 61 60 60 61 61 61 61 62 62 63 63 63 63 63 63 63 62 62 63 62 61 61 63 63 64 64 63 62 64 65 64 64 64 64 63 63 62 62 62 62 62 62 62 62 62 61 61 61 61 60 60 60 60 60 61 60 60 59 59 59 59 59 59 58
60 60 60 61 61 61 61 61 61 61 61 61 62 62 62 63 63 63 63 63 63 63 63 63 62 62 62 63 63 63 63 64 63 64 65 64 64 64 64 63 63 63 62 62 62 62 62 62 62 62 61 61 61 61 61 60 60 60 60 60 60 60 59 59 59 59 59 58 58
59 60 60 61 61 61 61 61 61 61 61 61 61 62 62 62 62 62 63 63 63 63 63 63 63 63 63 63 62 62 63 63 64 64 64 64 64 64 64 64 63 63 62 62 62 62 62 62 62 61 60 60 61 61 61 60 60 60 59 59 59 59 59 59 59 59 59 58 58
60 60 60 61 61 61 61 61 61 62 62 61 61 61 61 61 61 62 62 63 63 63 64 64 64 64 64 63 63 63 63 63 63 64 64 64 64 64 64 64 63 63 62 62 62 62 62 62 61 61 61 60 61 61 61 60 60 59 59 59 59 59 59 59 59 59 59 58 58
61 60 60 61 61 61 61 61 61 62 62 62 61 62 62 62 61 61 62 62 62 63 64 65 65 64 64 64 64 64 64 64 64 64 64 64 64 64 64 64 63 63 62 62 62 62 62 61 61 61 61 61 61 61 60 60 59 59 59 59 59 59 59 59 59 59 59 58 58
61 61 61 61 61 61 61 61 62 62 63 62 62 62 62 60 61 62 62 62 62 63 64 65 65 65 65 65 65 65 65 65 64 64 64 64 64 64 64 64 63 63 62 62 62 62 62 61 61 61 61 61 60 60 60 60 59 59 59 59 58 58 58 59 58 58 58 58 58
61 61 61 61 61 61 61 63 62 62 63 63 63 63 63 61 63 63 62 62 62 63 63 63 64 65 65 65 66 66 65 65 65 65 65 64 64 64 64 64 63 63 63 62 62 62 62 61 61 61 61 60 60 60 60 60 60 59 59 59 58 58 58 58 58 58 58 58 58
61 61 61 61 61 61 61 62 62 62 62 63 63 64 65 65 65 64 64 64 64 63 62 62 63 64 63 63 65 66 65 66 65 65 65 64 64 64 64 64 64 63 63 63 62 62 62 61 61 61 61 60 60 60 60 60 60 59 59 58 58 58 58 58 58 58 58 58 58
61 61 61 61 61 61 61 61 61 61 62 62 63 64 65 66 65 65 65 65 64 63 62 62 63 63 63 62 64 65 65 66 66 65 65 65 65 65 64 64 64 64 63 63 63 62 62 61 61 61 60 60 60 60 60 60 60 59 59 58 58 58 58 58 58 58 58 58 57
61 61 61 61 61 61 61 61 61 61 62 63 64 65 65 65 64 64 64 65 64 63 63 63 63 62 62 62 63 64 65 66 66 65 65 65 65 65 64 64 64 64 63 63 63 62 62 61 61 61 61 60 60 60 60 60 60 59 59 58 58 58 58 58 58 58 57 57 57
61 61 61 61 61 61 60 61 61 62 63 64 65 65 64 64 63 63 63 63 63 63 63 63 63 62 62 61 62 63 65 66 66 65 65 65 65 64 64 64 63 63 63 63 63 62 62 61 61 61 61 60 60 60 60 60 60 59 59 58 58 58 58 58 58 57 57 57 57
61 61 61 61 61 60 60 61 62 63 64 64 64 64 64 63 62 62 62 62 62 62 62 63 63 63 62 61 61 63 65 66 66 65 65 65 65 64 64 63 63 63 63 63 63 62 62 61 61 61 61 60 60 60 60 60 60 59 59 59 58 58 58 58 58 57 57 57 57
61 61 61 60 60 60 61 61 63 63 64 64 64 63 63 62 62 61 61 61 61 61 61 62 62 62 62 61 62 64 65 65 65 65 65 65 64 64 64 63 63 63 63 63 63 62 62 61 61 61 61 61 60 60 60 60 59 59 59 59 59 58 58 57 57 57 57 57 57
61 61 60 60 60 61 61 62 63 63 63 63 63 62 62 62 61 61 60 60 61 61 61 61 61 62 62 62 63 63 64 65 65 64 64 64 64 64 64 63 63 63 63 63 62 62 62 61 61 61 61 61 60 60 60 60 60 59 59 59 59 59 58 58 58 57 57 57 57
61 61 61 61 61 61 62 62 63 63 63 62 62 61 61 61 61 61 61 60 60 61 61 61 61 61 61 61 62 62 63 64 64 64 64 64 64 64 64 63 63 63 63 62 62 62 62 62 61 61 61 61 61 60 60 60 60 59 59 59 59 59 58 58 58 58 57 57 57
61 61 61 61 62 62 62 62 62 62 62 61 61 61 61 61 61 60 60 60 60 60 60 60 61 61 61 61 62 63 63 64 64 64 64 64 64 64 64 64 63 63 63 62 62 62 62 62 62 61 61 61 60 60 60 60 60 59 59 59 59 59 59 58 58 58 57 57 57
61 61 61 61 61 61 61 61 61 61 61 61 61 60 60 60 60 60 60 60 60 60 60 61 61 61 62 62 63 63 64 64 64 64 64 64 64 64 64 64 63 63 63 63 63 62 62 62 62 62 61 61 60 60 60 60 60 59 59 59 59 59 59 59 58 58 57 57 57
61 61 61 61 60 60 60 60 60 60 60 60 60 60 60 59 59 59 59 59 60 60 60 61 61 62 63 63 63 63 64 63 64 63 63 63 63 63 63 64 63 63 63 63 63 63 62 62 62 62 61 61 61 60 60 60 59 59 59 59 59 59 59 59 58 58 58 57 57
60 60 60 60 59 59 58 59 59 59 59 59 59 59 59 58 58 58 58 59 58 58 59 59 59 60 60 61 61 61 62 62 61 61 61 61 61 62 63 62 63 63 63 63 63 63 63 63 62 62 62 61 61 61 60 60 59 59 59 59 59 59 58 58 58 58 58 57 57
59 59 59 59 59 59 59 59 59 59 58 58 58 58 58 58 58 58 59 59 59 59 59 58 58 58 58 58 58 59 59 59 59 58 57 57 57 58 59 60 60 61 61 62 61 60 60 61 62 62 61 61 61 61 60 60 59 59 59 59 58 58 58 58 58 58 57 57 57
58 58 58 59 59 59 59 59 59 59 58 58 57 57 57 57 58 59 59 59 59 58 58 57 57 57 57 57 57 57 57 57 56 55 53 52 52 53 54 54 55 56 57 55 48 47 48 52 57 61 61 61 61 61 60 60 59 59 58 58 57 57 57 57 56 54 53 52 51
57 58 58 59 59 59 59 59 59 58 58 57 57 57 57 58 58 58 58 57 57 57 57 56 56 56 56 57 56 55 54 53 52 51 50 48 48 48 49 49 49 50 49 45 41 41 43 46 48 52 57 61 61 60 60 59 58 58 58 57 57 57 55 53 51 49 48 46 45
57 57 57 58 58 58 58 58 58 57 57 57 57 57 57 58 57 57 57 56 56 56 55 55 54 53 52 53 52 52 51 50 49 48 47 47 46 46 46 46 47 47 45 42 40 41 43 44 46 48 52 59 59 59 58 58 57 57 57 57 56 54 52 49 47 45 44 43 43
56 56 57 57 57 57 57 57 57 57 57 56 57 57 57 57 56 56 55 55 55 54 54 53 52 52 51 51 50 49 48 48 47 46 45 45 44 44 44 44 44 43 42 40 41 42 43 44 45 45 47 50 53 54 53 53 53 53 53 53 52 50 48 47 45 44 43 43 43
55 56 56 56 57 57 57 57 57 56 56 56 56 56 56 55 54 54 53 53 53 52 52 52 51 50 50 49 48 48 47 46 45 44 43 43 43 43 43 43 43 42 40 40 41 42 43 43 43 43 44 45 49 50 50 49 49 48 48 48 47 47 46 45 44 44 43 43 42
55 55 56 56 57 57 57 57 57 56 56 56 55 54 54 53 52 52 51 51 51 50 50 50 49 49 48 48 47 46 45 45 44 43 43 42 42 42 41 41 41 41 40 39 40 41 42 42 42 42 42 43 45 47 47 47 46 46 45 45 45 44 44 44 43 43 42 42 41
55 56 56 57 57 57 57 57 56 55 54 53 53 52 52 51 51 50 50 49 49 48 48 48 47 47 46 46 46 45 44 44 43 42 42 41 40 40 40 39 39 39 39 39 40 40 40 41 41 41 41 42 43 44 45 44 43 43 43 43 43 43 42 42 42 41 41 40 39
55 56 56 56 56 56 56 55 54 53 52 51 51 50 50 50 50 49 49 48 48 47 47 46 45 45 44 44 43 43 43 43 42 42 41 40 39 39 39 39 38 38 38 38 39 39 39 39 39 39 39 39 40 41 42 41 40 40 40 39 40 40 40 40 40 40 39 39 39
55 56 56 56 55 55 54 53 52 52 51 50 50 49 49 49 49 48 48 47 46 46 45 44 44 44 43 43 42 42 42 41 41 40 39 39 39 38 38 37 37 37 37 37 38 38 38 38 38 38 38 38 39 39 39 39 38 37 37 36 37 37 37 38 38 39 39 39 39
55 55 55 55 54 53 53 52 52 51 50 50 49 49 48 48 47 47 46 45 45 44 44 43 43 43 42 42 41 41 40 40 40 39 39 38 38 37 37 37 37 37 37 37 37 37 37 37 37 37 36 36 37 37 36 36 35 34 34 34 34 34 34 35 35 36 37 37 38
55 55 54 54 53 52 52 52 51 50 50 49 48 48 47 47 46 45 44 43 43 43 43 42 42 42 41 41 40 40 40 39 39 39 38 38 37 36 36 36 36 36 36 36 36 36 36 36 36 36 36 35 35 35 34 34 33 33 32 32 32 32 32 33 33 34 34 34 35
54 54 53 53 52 52 51 51 50 49 48 48 48 47 46 45 45 44 43 42 42 42 42 41 41 40 40 40 40 39 39 39 39 38 38 37 37 36 36 36 35 35 35 36 36 36 36 36 35 35 35 35 35 34 34 33 32 32 31 31 31 31 31 31 32 32 32 32 33
53 53 52 52 51 51 50 49 48 48 48 47 47 46 45 44 44 43 42 41 41 41 40 40 40 39 39 39 39 39 39 39 38 38 37 37 36 36 35 35 35 35 35 35 35 36 36 35 35 35 35 34 34 34 33 32 32 31 31 30 30 31 31 31 31 31 31 31 31
52 52 51 50 49 49 49 48 48 47 47 46 46 45 44 43 43 42 41 40 40 39 39 39 39 39 38 38 38 38 38 38 37 37 36 36 36 35 35 35 35 35 35 35 35 35 35 35 35 35 34 34 34 33 33 32 31 31 30 30 30 30 30 31 31 31 31 31 31
51 50 49 48 48 48 47 47 46 46 45 45 44 43 43 42 42 41 40 39 39 39 38 38 38 38 38 37 37 37 37 37 37 36 36 36 36 35 35 35 35 35 35 35 35 35 35 35 35 34 34 34 34 33 32 32 31 30 29 29 29 29 29 30 30 30 31 31 32
50 49 48 47 46 46 45 45 44 44 43 43 42 41 41 41 40 40 39 39 38 38 38 37 37 37 37 36 36 36 36 36 36 36 36 36 36 35 35 35 35 34 34 35 35 35 35 35 34 34 34 34 33 33 32 31 30 29 28 28 28 28 28 28 29 29 29 30 30
48 48 47 46 45 44 44 43 43 43 43 42 41 41 40 40 39 39 39 38 38 37 37 36 36 36 36 35 35 35 35 35 35 36 36 35 35 35 35 35 35 34 34 35 35 35 34 34 34 34 34 33 33 33 32 31 30 28 28 27 27 27 27 27 27 27 28 28 29